Weather History for Crane Lake, MN

Change the Weather History Date:

Friday, December 30, 2011

  Actual Average Record
Temperature  
Mean Temperature 14 °F -  
Max Temperature 17 °F 15 °F 35 °F (2002)
Min Temperature 8 °F 0 °F -36 °F (2013)
Degree Days  
Heating Degree Days 52    
Moisture  
Dew Point 15 °F    
Average Humidity 93    
Maximum Humidity 93    
Minimum Humidity 86    
Precipitation  
Precipitation 0.00 in - - ()
Sea Level Pressure  
Sea Level Pressure 29.76 in    
Wind  
Wind Speed 0 mph (NNW)    
Max Wind Speed 4 mph    
Max Gust Speed -    
Visibility 10 miles    
Events      
Averages and records for this station are not official NWS values.
T = Trace of Precipitation, MM = Missing Value Source: NWS Daily Summary

Daily Weather History Graph

Daily Weather History Graph

Search for Another Location

Airport:

Trip Planner

Search our weather history database for the weather conditions in past years. The results will help you decide how hot, cold, wet, or windy it might be!

Date:

Astronomy

Dec. 30, 2011 Rise Set
Actual Time 8:00 AM CST 4:24 PM CST
Civil Twilight 7:24 AM CST 5:00 PM CST
Nautical Twilight 6:44 AM CST 5:40 PM CST
Astronomical Twilight 6:06 AM CST 6:18 PM CST
Moon 10:49 AM CST (12/30) 11:33 PM CST (12/30)
Length of Visible Light 9h 36m
Length of Day
8h 23m
Waxing Crescent, 36% of the Moon is Illuminated
Dec 30
Waxing Crescent
Jan 1
First Quarter
Jan 9
Full
Jan 16
Last Quarter
Jan 23
New

Hourly Weather History & Observations

Time (CST) Temp. Windchill Dew Point Humidity Pressure Visibility Wind Dir Wind Speed Gust Speed Precip Events Conditions
12:08 AM 15.8 °F - 14.0 °F 93% 29.69 in 10.0 mi Calm Calm - N/A   Overcast
12:28 AM 15.8 °F - 14.0 °F 93% 29.69 in 10.0 mi Calm Calm - N/A   Overcast
12:48 AM 15.8 °F - 14.0 °F 93% 29.69 in 10.0 mi Calm Calm - N/A   Overcast
1:08 AM 15.8 °F - 14.0 °F 93% 29.69 in 10.0 mi Calm Calm - N/A   Overcast
1:28 AM 15.8 °F - 14.0 °F 93% 29.69 in 10.0 mi Calm Calm - N/A   Overcast
1:48 AM 15.8 °F - 14.0 °F 93% 29.69 in 10.0 mi Calm Calm - N/A   Overcast
2:09 AM 17.6 °F - 14.0 °F 86% 29.70 in 10.0 mi Calm Calm - N/A   Overcast
2:28 AM 17.6 °F - 15.8 °F 93% 29.71 in 10.0 mi Calm Calm - N/A   Overcast
2:49 AM 17.6 °F - 15.8 °F 93% 29.71 in 10.0 mi Calm Calm - N/A   Overcast
3:09 AM 17.6 °F - 15.8 °F 93% 29.71 in 10.0 mi Calm Calm - N/A   Overcast
3:48 AM 17.6 °F - 15.8 °F 93% 29.71 in 10.0 mi Calm Calm - N/A   Overcast
4:08 AM 17.6 °F - 15.8 °F 93% 29.71 in 10.0 mi Calm Calm - N/A   Overcast
4:29 AM 17.6 °F - 15.8 °F 93% 29.70 in 10.0 mi Calm Calm - N/A   Overcast
4:48 AM 17.6 °F - 15.8 °F 93% 29.70 in 10.0 mi Calm Calm - N/A   Overcast
5:08 AM 17.6 °F - 15.8 °F 93% 29.70 in 10.0 mi Calm Calm - N/A   Overcast
5:28 AM 17.6 °F - 15.8 °F 93% 29.71 in 10.0 mi Calm Calm - N/A   Overcast
5:48 AM 17.6 °F - 15.8 °F 93% 29.72 in 10.0 mi Calm Calm - N/A   Overcast
6:08 AM 17.6 °F - 15.8 °F 93% 29.72 in 10.0 mi Calm Calm - N/A   Overcast
6:28 AM 17.6 °F - 15.8 °F 93% 29.72 in 10.0 mi Calm Calm - N/A   Overcast
7:08 AM 15.8 °F - 14.0 °F 93% 29.73 in 10.0 mi Calm Calm - N/A   Overcast
7:28 AM 15.8 °F - 14.0 °F 93% 29.73 in 10.0 mi Calm Calm - N/A   Overcast
7:48 AM 15.8 °F - 14.0 °F 93% 29.73 in 10.0 mi Calm Calm - N/A   Overcast
8:08 AM 15.8 °F - 14.0 °F 93% 29.74 in 10.0 mi Calm Calm - N/A   Overcast
8:28 AM 15.8 °F - 14.0 °F 93% 29.75 in 10.0 mi Calm Calm - N/A   Overcast
9:09 AM 15.8 °F - 14.0 °F 93% 29.77 in 10.0 mi Calm Calm - N/A   Overcast
9:28 AM 15.8 °F - 14.0 °F 93% 29.77 in 10.0 mi Calm Calm - N/A   Overcast
9:48 AM 15.8 °F - 14.0 °F 93% 29.78 in 10.0 mi Calm Calm - N/A   Overcast
10:08 AM 15.8 °F 10.2 °F 14.0 °F 93% 29.78 in 10.0 mi North 3.5 mph - N/A   Overcast
10:28 AM 15.8 °F - 14.0 °F 93% 29.79 in 10.0 mi Calm Calm - N/A   Overcast
11:08 AM 15.8 °F - 14.0 °F 93% 29.78 in 10.0 mi Calm Calm - N/A   Overcast
11:28 AM 17.6 °F - 14.0 °F 86% 29.77 in 10.0 mi Calm Calm - N/A   Overcast
11:49 AM 17.6 °F - 14.0 °F 86% 29.77 in 10.0 mi Calm Calm - N/A   Overcast
12:28 PM 17.6 °F - 15.8 °F 93% 29.76 in 10.0 mi Calm Calm - N/A   Overcast
1:08 PM 17.6 °F - 15.8 °F 93% 29.76 in 10.0 mi Calm Calm - N/A   Overcast
1:28 PM 17.6 °F 12.3 °F 15.8 °F 93% 29.75 in 10.0 mi NW 3.5 mph - N/A   Overcast
1:48 PM 17.6 °F - 15.8 °F 93% 29.75 in 10.0 mi Calm Calm - N/A   Overcast
2:08 PM 17.6 °F - 15.8 °F 93% 29.76 in 10.0 mi Calm Calm - N/A   Overcast
2:28 PM 17.6 °F - 15.8 °F 93% 29.76 in 10.0 mi Calm Calm - N/A   Overcast
2:48 PM 17.6 °F - 15.8 °F 93% 29.77 in 10.0 mi Calm Calm - N/A   Overcast
3:08 PM 17.6 °F - 15.8 °F 93% 29.78 in 10.0 mi Calm Calm - N/A   Overcast
3:28 PM 17.6 °F - 15.8 °F 93% 29.79 in 10.0 mi Calm Calm - N/A   Overcast
3:49 PM 17.6 °F - 15.8 °F 93% 29.80 in 10.0 mi Calm Calm - N/A   Overcast
4:08 PM 17.6 °F - 15.8 °F 93% 29.80 in 10.0 mi Calm Calm - N/A   Overcast
4:29 PM 17.6 °F - 15.8 °F 93% 29.81 in 10.0 mi Calm Calm - N/A   Overcast
4:48 PM 17.6 °F - 15.8 °F 93% 29.81 in 10.0 mi Calm Calm - N/A   Overcast
5:09 PM 17.6 °F - 15.8 °F 93% 29.82 in 10.0 mi Calm Calm - N/A   Overcast
5:28 PM 17.6 °F - 15.8 °F 93% 29.81 in 10.0 mi Calm Calm - N/A   Overcast
5:48 PM 17.6 °F - 15.8 °F 93% 29.82 in 10.0 mi Calm Calm - N/A   Overcast
6:08 PM 17.6 °F - 15.8 °F 93% 29.81 in 10.0 mi Calm Calm - N/A   Overcast
6:28 PM 17.6 °F - 15.8 °F 93% 29.80 in 10.0 mi Calm Calm - N/A   Overcast
6:48 PM 17.6 °F - 15.8 °F 93% 29.80 in 10.0 mi Calm Calm - N/A   Overcast
7:08 PM 17.6 °F - 15.8 °F 93% 29.80 in 10.0 mi Calm Calm - N/A   Overcast
7:28 PM 17.6 °F - 15.8 °F 93% 29.80 in 10.0 mi Calm Calm - N/A   Overcast
7:48 PM 15.8 °F - 14.0 °F 93% 29.79 in 10.0 mi Calm Calm - N/A   Overcast
8:08 PM 15.8 °F - 14.0 °F 93% 29.80 in 10.0 mi Calm Calm - N/A   Mostly Cloudy
8:28 PM 14.0 °F - 12.2 °F 93% 29.79 in 10.0 mi Calm Calm - N/A   Scattered Clouds
8:48 PM 10.4 °F - 8.6 °F 92% 29.79 in 10.0 mi Calm Calm - N/A   Clear
9:08 PM 10.4 °F - 8.6 °F 92% 29.80 in 10.0 mi Calm Calm - N/A   Clear
9:28 PM 8.6 °F - 6.8 °F 92% 29.80 in 10.0 mi Calm Calm - N/A   Clear
9:48 PM 6.8 °F - 5.0 °F 92% 29.80 in 10.0 mi Calm Calm - N/A   Clear
10:08 PM 6.8 °F - 3.2 °F 85% 29.80 in 10.0 mi Calm Calm - N/A   Clear
10:28 PM 6.8 °F - 3.2 °F 85% 29.80 in 10.0 mi Calm Calm - N/A   Clear
10:48 PM 5.0 °F - 1.4 °F 85% 29.81 in 10.0 mi Calm Calm - N/A   Clear
11:08 PM 5.0 °F - 1.4 °F 85% 29.81 in 10.0 mi Calm Calm - N/A   Clear
11:28 PM 3.2 °F - 1.4 °F 92% 29.81 in 10.0 mi Calm Calm - N/A   Clear
11:48 PM 3.2 °F - 1.4 °F 92% 29.79 in 10.0 mi Calm Calm - N/A   Clear